Time,TemperatureF,DewpointF,PressureIn,WindDirection,WindDirectionDegrees,WindSpeedMPH,WindSpeedGustMPH,Humidity,HourlyPrecipIn,Conditions,Clouds,dailyrainin,SoftwareType,DateUTC
2013-02-12 00:04:00,43.5,42.4,30.43,NNE,23,0.0,11.0,96,0.00,,,0.00,Wunderground v.1.15,2013-02-12 08:04:00,
2013-02-12 00:10:00,43.6,42.5,30.43,NNE,23,1.0,1.0,96,0.00,,,0.00,Wunderground v.1.15,2013-02-12 08:10:00,
2013-02-12 00:15:00,43.6,42.5,30.43,NNE,23,1.0,1.0,96,0.00,,,0.00,Wunderground v.1.15,2013-02-12 08:15:00,
2013-02-12 00:20:00,43.6,42.5,30.43,NNE,23,0.0,1.0,96,0.00,,,0.00,Wunderground v.1.15,2013-02-12 08:20:00,
2013-02-12 00:26:00,43.6,42.5,30.43,NNE,23,0.0,1.0,96,0.00,,,0.00,Wunderground v.1.15,2013-02-12 08:26:00,
2013-02-12 00:31:00,43.6,42.5,30.43,NNE,23,1.0,1.0,96,0.00,,,0.00,Wunderground v.1.15,2013-02-12 08:31:00,
2013-02-12 00:37:00,43.6,42.5,30.43,NNE,23,1.0,1.0,96,0.00,,,0.00,Wunderground v.1.15,2013-02-12 08:37:00,
2013-02-12 00:43:00,43.6,42.5,30.43,NNE,23,1.0,2.0,96,0.00,,,0.00,Wunderground v.1.15,2013-02-12 08:43:00,
2013-02-12 00:49:00,43.6,42.5,30.43,NNE,23,2.0,2.0,96,0.00,,,0.00,Wunderground v.1.15,2013-02-12 08:49:00,
2013-02-12 00:55:00,43.6,42.5,30.43,NNE,23,2.0,3.0,96,0.00,,,0.00,Wunderground v.1.15,2013-02-12 08:55:00,
2013-02-12 01:01:00,43.6,42.5,30.43,NNE,23,2.0,2.0,96,0.00,,,0.00,Wunderground v.1.15,2013-02-12 09:01:00,
2013-02-12 01:07:00,43.6,42.5,30.43,NNE,23,1.0,3.0,96,0.00,,,0.00,Wunderground v.1.15,2013-02-12 09:07:00,
2013-02-12 01:12:00,43.6,42.8,30.43,NNE,23,1.0,2.0,97,0.00,,,0.00,Wunderground v.1.15,2013-02-12 09:12:00,
2013-02-12 01:17:00,43.6,42.5,30.42,NNE,23,1.0,2.0,96,0.00,,,0.00,Wunderground v.1.15,2013-02-12 09:17:00,
2013-02-12 01:23:00,43.5,42.4,30.43,NNE,23,0.0,2.0,96,0.00,,,0.00,Wunderground v.1.15,2013-02-12 09:23:00,
2013-02-12 01:29:00,43.5,42.7,30.43,NNE,23,0.0,2.0,97,0.00,,,0.00,Wunderground v.1.15,2013-02-12 09:29:00,
2013-02-12 01:35:00,43.7,42.9,30.44,NNE,23,0.0,2.0,97,0.00,,,0.00,Wunderground v.1.15,2013-02-12 09:35:00,
2013-02-12 01:41:00,43.8,43.0,30.44,NNE,23,0.0,2.0,97,0.00,,,0.00,Wunderground v.1.15,2013-02-12 09:41:00,
2013-02-12 01:47:00,43.9,43.1,30.44,NNE,23,0.0,2.0,97,0.00,,,0.00,Wunderground v.1.15,2013-02-12 09:47:00,
2013-02-12 01:52:00,44.0,43.2,30.44,NNE,23,0.0,2.0,97,0.00,,,0.00,Wunderground v.1.15,2013-02-12 09:52:00,
2013-02-12 01:57:00,44.0,43.2,30.44,NNE,23,1.0,2.0,97,0.00,,,0.00,Wunderground v.1.15,2013-02-12 09:57:00,
2013-02-12 02:04:00,43.8,42.7,30.44,NNE,23,2.0,2.0,96,0.00,,,0.00,Wunderground v.1.15,2013-02-12 10:04:00,
2013-02-12 02:10:00,43.6,42.8,30.44,NNE,23,2.0,2.0,97,0.00,,,0.00,Wunderground v.1.15,2013-02-12 10:10:00,
2013-02-12 02:15:00,43.6,42.8,30.44,NNE,23,2.0,2.0,97,0.00,,,0.00,Wunderground v.1.15,2013-02-12 10:15:00,
2013-02-12 02:21:00,43.5,42.7,30.44,NNE,23,1.0,3.0,97,0.00,,,0.00,Wunderground v.1.15,2013-02-12 10:21:00,
2013-02-12 02:27:00,43.5,42.7,30.45,NNE,23,2.0,3.0,97,0.00,,,0.00,Wunderground v.1.15,2013-02-12 10:27:00,
2013-02-12 02:32:00,43.5,42.7,30.44,NNE,23,1.0,2.0,97,0.00,,,0.00,Wunderground v.1.15,2013-02-12 10:32:00,
2013-02-12 02:37:00,43.5,42.7,30.45,NNE,23,2.0,2.0,97,0.00,,,0.00,Wunderground v.1.15,2013-02-12 10:37:00,
2013-02-12 02:44:00,43.5,42.7,30.44,NNE,23,2.0,2.0,97,0.00,,,0.00,Wunderground v.1.15,2013-02-12 10:44:00,
2013-02-12 02:49:00,43.5,42.7,30.45,NNE,23,1.0,2.0,97,0.00,,,0.00,Wunderground v.1.15,2013-02-12 10:49:00,
2013-02-12 02:56:00,43.5,42.7,30.45,NNE,23,1.0,2.0,97,0.00,,,0.00,Wunderground v.1.15,2013-02-12 10:56:00,
2013-02-12 03:01:00,43.5,42.7,30.45,NNE,23,1.0,2.0,97,0.00,,,0.00,Wunderground v.1.15,2013-02-12 11:01:00,
2013-02-12 03:06:00,43.5,42.7,30.45,NNE,23,2.0,2.0,97,0.00,,,0.00,Wunderground v.1.15,2013-02-12 11:06:00,
2013-02-12 03:12:00,43.5,42.7,30.45,NNE,23,2.0,2.0,97,0.00,,,0.00,Wunderground v.1.15,2013-02-12 11:12:00,
2013-02-12 03:19:00,43.5,42.7,30.45,NNE,23,1.0,3.0,97,0.00,,,0.00,Wunderground v.1.15,2013-02-12 11:19:00,
2013-02-12 03:25:00,43.5,42.7,30.45,NNE,23,2.0,3.0,97,0.00,,,0.01,Wunderground v.1.15,2013-02-12 11:25:00,
2013-02-12 03:31:00,43.5,42.7,30.45,NNE,23,2.0,2.0,97,0.00,,,0.01,Wunderground v.1.15,2013-02-12 11:31:00,
2013-02-12 03:37:00,43.5,42.7,30.45,NNE,23,1.0,2.0,97,0.00,,,0.01,Wunderground v.1.15,2013-02-12 11:37:00,
2013-02-12 03:45:00,43.6,42.8,30.44,NNE,23,2.0,2.0,97,0.00,,,0.01,Wunderground v.1.15,2013-02-12 11:45:00,
2013-02-12 03:51:00,43.6,42.8,30.44,NNE,23,2.0,2.0,97,0.00,,,0.01,Wunderground v.1.15,2013-02-12 11:51:00,
2013-02-12 03:56:00,43.6,42.8,30.44,NNE,23,1.0,2.0,97,0.00,,,0.01,Wunderground v.1.15,2013-02-12 11:56:00,
2013-02-12 04:01:00,43.5,42.7,30.44,NNE,23,1.0,2.0,97,0.00,,,0.01,Wunderground v.1.15,2013-02-12 12:01:00,
2013-02-12 04:07:00,43.5,42.7,30.44,NNE,23,1.0,2.0,97,0.00,,,0.01,Wunderground v.1.15,2013-02-12 12:07:00,
2013-02-12 04:14:00,43.4,42.6,30.44,NNE,23,1.0,2.0,97,0.00,,,0.01,Wunderground v.1.15,2013-02-12 12:14:00,
2013-02-12 04:19:00,43.4,42.6,30.44,NNE,23,0.0,2.0,97,0.00,,,0.01,Wunderground v.1.15,2013-02-12 12:19:00,
2013-02-12 04:26:00,43.4,42.6,30.44,NNE,23,0.0,2.0,97,0.00,,,0.01,Wunderground v.1.15,2013-02-12 12:26:00,
2013-02-12 04:32:00,43.4,42.6,30.44,NNE,23,0.0,2.0,97,0.00,,,0.01,Wunderground v.1.15,2013-02-12 12:32:00,
2013-02-12 04:37:00,43.5,42.7,30.44,NNE,23,1.0,2.0,97,0.00,,,0.01,Wunderground v.1.15,2013-02-12 12:37:00,
2013-02-12 04:43:00,43.5,42.7,30.44,NNE,23,1.0,2.0,97,0.00,,,0.01,Wunderground v.1.15,2013-02-12 12:43:00,
2013-02-12 04:49:00,43.5,42.7,30.44,NNE,23,1.0,2.0,97,0.00,,,0.01,Wunderground v.1.15,2013-02-12 12:49:00,
2013-02-12 04:55:00,43.6,42.8,30.44,NNE,23,1.0,2.0,97,0.00,,,0.01,Wunderground v.1.15,2013-02-12 12:55:00,
2013-02-12 05:01:00,43.6,42.8,30.44,NNE,23,2.0,2.0,97,0.00,,,0.01,Wunderground v.1.15,2013-02-12 13:01:00,
2013-02-12 05:07:00,43.6,42.8,30.44,NNE,23,2.0,3.0,97,0.00,,,0.01,Wunderground v.1.15,2013-02-12 13:07:00,
2013-02-12 05:13:00,43.6,42.8,30.44,NNE,23,1.0,2.0,97,0.00,,,0.01,Wunderground v.1.15,2013-02-12 13:13:00,
2013-02-12 05:18:00,43.6,42.8,30.44,NNE,23,1.0,2.0,97,0.00,,,0.01,Wunderground v.1.15,2013-02-12 13:18:00,
2013-02-12 05:23:00,43.6,42.8,30.44,NNE,23,1.0,2.0,97,0.00,,,0.01,Wunderground v.1.15,2013-02-12 13:23:00,
2013-02-12 05:28:00,43.6,42.8,30.44,NNE,23,1.0,2.0,97,0.00,,,0.01,Wunderground v.1.15,2013-02-12 13:28:00,
2013-02-12 05:34:00,43.5,42.7,30.44,NNE,23,1.0,2.0,97,0.00,,,0.01,Wunderground v.1.15,2013-02-12 13:34:00,
2013-02-12 05:40:00,43.5,42.7,30.44,NNE,23,1.0,2.0,97,0.00,,,0.01,Wunderground v.1.15,2013-02-12 13:40:00,
2013-02-12 05:46:00,43.4,42.6,30.44,NNE,23,2.0,2.0,97,0.00,,,0.01,Wunderground v.1.15,2013-02-12 13:46:00,
2013-02-12 05:52:00,43.4,42.6,30.44,NNE,23,2.0,2.0,97,0.00,,,0.01,Wunderground v.1.15,2013-02-12 13:52:00,
2013-02-12 06:00:00,43.4,42.6,30.44,NNE,23,0.0,2.0,97,0.00,,,0.01,Wunderground v.1.15,2013-02-12 14:00:00,
2013-02-12 06:06:00,43.4,42.6,30.45,NNE,23,1.0,2.0,97,0.00,,,0.01,Wunderground v.1.15,2013-02-12 14:06:00,
2013-02-12 06:12:00,43.4,42.6,30.44,NNE,23,1.0,3.0,97,0.00,,,0.01,Wunderground v.1.15,2013-02-12 14:12:00,
2013-02-12 06:20:00,43.4,42.6,30.45,NNE,23,1.0,1.0,97,0.00,,,0.01,Wunderground v.1.15,2013-02-12 14:20:00,
2013-02-12 06:26:00,43.4,42.6,30.45,NNE,23,1.0,2.0,97,0.00,,,0.01,Wunderground v.1.15,2013-02-12 14:26:00,
2013-02-12 06:32:00,43.4,42.6,30.45,NNE,23,1.0,2.0,97,0.00,,,0.01,Wunderground v.1.15,2013-02-12 14:32:00,
2013-02-12 06:38:00,43.4,42.6,30.45,NNE,23,2.0,2.0,97,0.00,,,0.01,Wunderground v.1.15,2013-02-12 14:38:00,
2013-02-12 06:44:00,43.4,42.6,30.45,NNE,23,2.0,2.0,97,0.00,,,0.01,Wunderground v.1.15,2013-02-12 14:44:00,
2013-02-12 06:49:00,43.4,42.6,30.45,NNE,23,2.0,3.0,97,0.00,,,0.01,Wunderground v.1.15,2013-02-12 14:49:00,
2013-02-12 06:55:00,43.4,42.6,30.45,NNE,23,2.0,3.0,97,0.00,,,0.01,Wunderground v.1.15,2013-02-12 14:55:00,
2013-02-12 07:01:00,43.5,42.7,30.45,NNE,23,2.0,2.0,97,0.00,,,0.01,Wunderground v.1.15,2013-02-12 15:01:00,
2013-02-12 07:06:00,43.5,42.7,30.46,NNE,23,2.0,2.0,97,0.00,,,0.01,Wunderground v.1.15,2013-02-12 15:06:00,
2013-02-12 07:13:00,43.5,42.7,30.46,NNE,23,1.0,2.0,97,0.00,,,0.01,Wunderground v.1.15,2013-02-12 15:13:00,
2013-02-12 07:19:00,43.5,42.7,30.46,NNE,23,1.0,2.0,97,0.00,,,0.01,Wunderground v.1.15,2013-02-12 15:19:00,
2013-02-12 07:25:00,43.5,42.7,30.46,NNE,23,1.0,2.0,97,0.00,,,0.01,Wunderground v.1.15,2013-02-12 15:25:00,
2013-02-12 07:31:00,43.6,42.8,30.46,NNE,23,1.0,2.0,97,0.00,,,0.01,Wunderground v.1.15,2013-02-12 15:31:00,
2013-02-12 07:37:00,43.6,42.8,30.47,NNE,23,1.0,2.0,97,0.00,,,0.01,Wunderground v.1.15,2013-02-12 15:37:00,
2013-02-12 07:42:00,43.6,42.8,30.47,NNE,23,1.0,2.0,97,0.00,,,0.01,Wunderground v.1.15,2013-02-12 15:42:00,
2013-02-12 07:47:00,43.7,42.9,30.47,NNE,23,0.0,2.0,97,0.00,,,0.01,Wunderground v.1.15,2013-02-12 15:47:00,
2013-02-12 07:52:00,43.7,42.9,30.47,NNE,23,0.0,2.0,97,0.00,,,0.01,Wunderground v.1.15,2013-02-12 15:52:00,
2013-02-12 07:58:00,43.8,43.0,30.47,NNE,23,0.0,2.0,97,0.00,,,0.01,Wunderground v.1.15,2013-02-12 15:58:00,
2013-02-12 08:05:00,43.9,43.4,30.47,NNE,23,1.0,2.0,98,0.00,,,0.01,Wunderground v.1.15,2013-02-12 16:05:00,
2013-02-12 08:11:00,44.0,43.5,30.48,NNE,23,1.0,2.0,98,0.00,,,0.02,Wunderground v.1.15,2013-02-12 16:11:00,
2013-02-12 08:16:00,44.0,43.5,30.47,NNE,23,1.0,2.0,98,0.00,,,0.02,Wunderground v.1.15,2013-02-12 16:16:00,
2013-02-12 08:21:00,44.1,43.6,30.48,NNE,23,1.0,2.0,98,0.06,,,0.03,Wunderground v.1.15,2013-02-12 16:21:00,
2013-02-12 08:27:00,44.2,43.7,30.48,NNE,23,0.0,2.0,98,0.06,,,0.03,Wunderground v.1.15,2013-02-12 16:27:00,
2013-02-12 08:34:00,44.4,43.9,30.48,NNE,23,0.0,2.0,98,0.04,,,0.03,Wunderground v.1.15,2013-02-12 16:34:00,
2013-02-12 08:39:00,44.6,44.1,30.48,NNE,23,0.0,2.0,98,0.00,,,0.03,Wunderground v.1.15,2013-02-12 16:39:00,
2013-02-12 08:45:00,44.8,44.3,30.48,NNE,23,0.0,2.0,98,0.00,,,0.03,Wunderground v.1.15,2013-02-12 16:45:00,
2013-02-12 08:51:00,45.0,44.5,30.48,NNE,23,0.0,2.0,98,0.00,,,0.03,Wunderground v.1.15,2013-02-12 16:51:00,
2013-02-12 08:56:00,45.2,44.7,30.48,NNE,23,1.0,2.0,98,0.00,,,0.03,Wunderground v.1.15,2013-02-12 16:56:00,
2013-02-12 09:01:00,45.3,44.8,30.49,NNE,23,0.0,2.0,98,0.00,,,0.03,Wunderground v.1.15,2013-02-12 17:01:00,
2013-02-12 09:07:00,45.3,44.5,30.49,NNE,23,0.0,2.0,97,0.00,,,0.03,Wunderground v.1.15,2013-02-12 17:07:00,
2013-02-12 09:13:00,45.4,44.9,30.49,NNE,23,0.0,2.0,98,0.00,,,0.03,Wunderground v.1.15,2013-02-12 17:13:00,
2013-02-12 09:19:00,45.5,45.0,30.49,NNE,23,0.0,2.0,98,0.00,,,0.03,Wunderground v.1.15,2013-02-12 17:19:00,
2013-02-12 09:25:00,45.6,45.1,30.49,NNE,23,1.0,2.0,98,0.00,,,0.03,Wunderground v.1.15,2013-02-12 17:25:00,
2013-02-12 09:31:00,45.8,45.3,30.49,NNE,23,1.0,2.0,98,0.00,,,0.03,Wunderground v.1.15,2013-02-12 17:31:00,
2013-02-12 09:36:00,46.1,45.6,30.49,NNE,23,1.0,2.0,98,0.00,,,0.03,Wunderground v.1.15,2013-02-12 17:36:00,
2013-02-12 09:42:00,46.3,45.8,30.50,NNE,23,1.0,2.0,98,0.00,,,0.03,Wunderground v.1.15,2013-02-12 17:42:00,
2013-02-12 09:48:00,46.6,46.1,30.50,NNE,23,0.0,2.0,98,0.00,,,0.03,Wunderground v.1.15,2013-02-12 17:48:00,
2013-02-12 09:54:00,46.8,46.3,30.50,NNE,23,1.0,2.0,98,0.00,,,0.03,Wunderground v.1.15,2013-02-12 17:54:00,
2013-02-12 09:59:00,46.8,46.3,30.50,NNE,23,1.0,2.0,98,0.00,,,0.03,Wunderground v.1.15,2013-02-12 17:59:00,
2013-02-12 10:04:00,46.9,46.4,30.50,NNE,23,1.0,2.0,98,0.00,,,0.03,Wunderground v.1.15,2013-02-12 18:04:00,
2013-02-12 10:10:00,46.7,46.2,30.50,NNE,23,1.0,2.0,98,0.00,,,0.03,Wunderground v.1.15,2013-02-12 18:10:00,
2013-02-12 10:15:00,46.8,46.3,30.50,NNE,23,1.0,2.0,98,0.00,,,0.03,Wunderground v.1.15,2013-02-12 18:15:00,
2013-02-12 10:21:00,46.8,46.3,30.50,NNE,23,1.0,2.0,98,0.00,,,0.03,Wunderground v.1.15,2013-02-12 18:21:00,
2013-02-12 10:27:00,46.8,46.3,30.50,NNE,23,1.0,2.0,98,0.00,,,0.03,Wunderground v.1.15,2013-02-12 18:27:00,
2013-02-12 10:33:00,46.9,46.4,30.51,NNE,23,2.0,3.0,98,0.00,,,0.03,Wunderground v.1.15,2013-02-12 18:33:00,
2013-02-12 10:38:00,46.8,46.3,30.51,NNE,23,2.0,3.0,98,0.00,,,0.03,Wunderground v.1.15,2013-02-12 18:38:00,
2013-02-12 10:45:00,46.8,46.3,30.51,NNW,340,3.0,4.0,98,0.00,,,0.03,Wunderground v.1.15,2013-02-12 18:45:00,
2013-02-12 10:51:00,46.6,45.8,30.51,NNW,340,3.0,3.0,97,0.00,,,0.03,Wunderground v.1.15,2013-02-12 18:51:00,
2013-02-12 10:56:00,46.5,45.7,30.51,NNW,333,3.0,5.0,97,0.00,,,0.03,Wunderground v.1.15,2013-02-12 18:56:00,
2013-02-12 11:01:00,46.5,46.0,30.52,NNW,333,3.0,3.0,98,0.00,,,0.04,Wunderground v.1.15,2013-02-12 19:01:00,
2013-02-12 11:07:00,46.6,46.1,30.52,NNW,333,3.0,4.0,98,0.00,,,0.04,Wunderground v.1.15,2013-02-12 19:07:00,
2013-02-12 11:12:00,46.6,45.8,30.52,NNW,333,3.0,3.0,97,0.00,,,0.04,Wunderground v.1.15,2013-02-12 19:12:00,
2013-02-12 11:20:00,46.7,46.2,30.52,NNW,333,2.0,2.0,98,0.00,,,0.04,Wunderground v.1.15,2013-02-12 19:20:00,
2013-02-12 11:26:00,47.0,46.5,30.52,NNW,333,2.0,3.0,98,0.00,,,0.04,Wunderground v.1.15,2013-02-12 19:26:00,
2013-02-12 11:31:00,47.0,46.5,30.52,NNW,333,2.0,3.0,98,0.00,,,0.04,Wunderground v.1.15,2013-02-12 19:31:00,
2013-02-12 11:37:00,46.9,46.4,30.52,NNW,333,2.0,3.0,98,0.00,,,0.04,Wunderground v.1.15,2013-02-12 19:37:00,
2013-02-12 11:42:00,46.9,46.4,30.52,NNW,333,2.0,2.0,98,0.00,,,0.04,Wunderground v.1.15,2013-02-12 19:42:00,
2013-02-12 11:48:00,47.0,46.5,30.52,NNW,333,2.0,3.0,98,0.00,,,0.04,Wunderground v.1.15,2013-02-12 19:48:00,
2013-02-12 11:54:00,47.0,46.5,30.52,NNW,333,2.0,3.0,98,0.00,,,0.04,Wunderground v.1.15,2013-02-12 19:54:00,
2013-02-12 12:00:00,47.0,46.5,30.52,NNW,333,3.0,3.0,98,0.00,,,0.04,Wunderground v.1.15,2013-02-12 20:00:00,
2013-02-12 12:05:00,47.0,46.5,30.51,NNW,333,2.0,3.0,98,0.00,,,0.04,Wunderground v.1.15,2013-02-12 20:05:00,
2013-02-12 12:11:00,47.0,46.5,30.51,NNW,333,2.0,2.0,98,0.00,,,0.04,Wunderground v.1.15,2013-02-12 20:11:00,
2013-02-12 12:17:00,47.2,46.7,30.51,NNW,333,2.0,2.0,98,0.00,,,0.04,Wunderground v.1.15,2013-02-12 20:17:00,
2013-02-12 12:22:00,47.4,46.9,30.51,NNW,333,2.0,2.0,98,0.00,,,0.04,Wunderground v.1.15,2013-02-12 20:22:00,
2013-02-12 12:29:00,47.5,47.0,30.51,NNW,333,1.0,2.0,98,0.00,,,0.04,Wunderground v.1.15,2013-02-12 20:29:00,
2013-02-12 12:35:00,47.6,47.1,30.50,NNW,333,1.0,2.0,98,0.00,,,0.04,Wunderground v.1.15,2013-02-12 20:35:00,
2013-02-12 12:41:00,47.6,47.1,30.50,NNW,333,2.0,3.0,98,0.00,,,0.04,Wunderground v.1.15,2013-02-12 20:41:00,
2013-02-12 12:47:00,47.5,47.0,30.51,NNW,333,3.0,4.0,98,0.00,,,0.04,Wunderground v.1.15,2013-02-12 20:47:00,
2013-02-12 12:52:00,47.6,47.1,30.50,NNW,333,3.0,3.0,98,0.00,,,0.04,Wunderground v.1.15,2013-02-12 20:52:00,
2013-02-12 12:59:00,47.6,47.1,30.51,NNW,333,2.0,3.0,98,0.00,,,0.04,Wunderground v.1.15,2013-02-12 20:59:00,
2013-02-12 13:05:00,47.6,47.1,30.50,NNW,333,2.0,3.0,98,0.00,,,0.04,Wunderground v.1.15,2013-02-12 21:05:00,
2013-02-12 13:10:00,47.8,47.3,30.50,NNW,333,3.0,3.0,98,0.00,,,0.04,Wunderground v.1.15,2013-02-12 21:10:00,
2013-02-12 13:15:00,47.9,47.4,30.50,NNW,333,3.0,4.0,98,0.00,,,0.04,Wunderground v.1.15,2013-02-12 21:15:00,
2013-02-12 13:21:00,48.1,47.6,30.50,NNW,333,3.0,4.0,98,0.00,,,0.04,Wunderground v.1.15,2013-02-12 21:21:00,
2013-02-12 13:27:00,47.8,47.0,30.49,NNW,333,3.0,4.0,97,0.00,,,0.04,Wunderground v.1.15,2013-02-12 21:27:00,
2013-02-12 13:32:00,47.9,47.4,30.50,NNW,333,3.0,4.0,98,0.00,,,0.04,Wunderground v.1.15,2013-02-12 21:32:00,
2013-02-12 13:37:00,48.0,47.5,30.49,NNW,327,4.0,5.0,98,0.00,,,0.04,Wunderground v.1.15,2013-02-12 21:37:00,
2013-02-12 13:43:00,48.2,47.7,30.49,NW,325,4.0,4.0,98,0.00,,,0.04,Wunderground v.1.15,2013-02-12 21:43:00,
2013-02-12 13:49:00,48.3,47.8,30.49,NW,325,4.0,4.0,98,0.00,,,0.04,Wunderground v.1.15,2013-02-12 21:49:00,
2013-02-12 13:54:00,48.2,47.7,30.49,NW,325,3.0,6.0,98,0.00,,,0.04,Wunderground v.1.15,2013-02-12 21:54:00,
2013-02-12 14:00:00,47.9,47.1,30.49,NNW,342,4.0,5.0,97,0.00,,,0.04,Wunderground v.1.15,2013-02-12 22:00:00,
2013-02-12 14:06:00,47.7,46.9,30.49,NNW,342,4.0,5.0,97,0.00,,,0.04,Wunderground v.1.15,2013-02-12 22:06:00,
2013-02-12 14:12:00,48.0,47.5,30.48,NNW,342,4.0,4.0,98,0.00,,,0.04,Wunderground v.1.15,2013-02-12 22:12:00,
2013-02-12 14:17:00,47.9,47.4,30.48,NNW,344,4.0,6.0,98,0.00,,,0.04,Wunderground v.1.15,2013-02-12 22:17:00,
2013-02-12 14:24:00,47.7,46.9,30.48,North,349,5.0,5.0,97,0.00,,,0.04,Wunderground v.1.15,2013-02-12 22:24:00,
2013-02-12 14:30:00,47.9,47.4,30.48,North,355,5.0,5.0,98,0.00,,,0.04,Wunderground v.1.15,2013-02-12 22:30:00,
2013-02-12 14:36:00,48.3,47.8,30.48,North,360,5.0,6.0,98,0.00,,,0.04,Wunderground v.1.15,2013-02-12 22:36:00,
2013-02-12 14:41:00,48.2,47.4,30.48,North,360,4.0,6.0,97,0.00,,,0.04,Wunderground v.1.15,2013-02-12 22:41:00,
2013-02-12 14:46:00,48.0,47.5,30.48,North,355,5.0,6.0,98,0.00,,,0.04,Wunderground v.1.15,2013-02-12 22:46:00,
2013-02-12 14:51:00,48.0,47.2,30.48,North,355,5.0,6.0,97,0.00,,,0.04,Wunderground v.1.15,2013-02-12 22:51:00,
2013-02-12 14:58:00,47.9,47.1,30.48,North,355,5.0,6.0,97,0.00,,,0.04,Wunderground v.1.15,2013-02-12 22:58:00,
2013-02-12 15:04:00,47.8,47.0,30.48,NNW,348,5.0,7.0,97,0.00,,,0.04,Wunderground v.1.15,2013-02-12 23:04:00,
2013-02-12 15:09:00,47.8,47.0,30.48,North,350,5.0,7.0,97,0.00,,,0.04,Wunderground v.1.15,2013-02-12 23:09:00,
2013-02-12 15:14:00,47.7,46.9,30.48,North,350,6.0,6.0,97,0.00,,,0.04,Wunderground v.1.15,2013-02-12 23:14:00,
2013-02-12 15:19:00,47.8,47.0,30.48,North,350,5.0,6.0,97,0.00,,,0.04,Wunderground v.1.15,2013-02-12 23:19:00,
2013-02-12 15:25:00,47.9,47.1,30.48,NNW,346,5.0,6.0,97,0.00,,,0.04,Wunderground v.1.15,2013-02-12 23:25:00,
2013-02-12 15:31:00,47.8,47.0,30.48,North,350,6.0,6.0,97,0.00,,,0.04,Wunderground v.1.15,2013-02-12 23:31:00,
2013-02-12 15:37:00,47.7,46.9,30.48,NNW,348,7.0,9.0,97,0.00,,,0.04,Wunderground v.1.15,2013-02-12 23:37:00,
2013-02-12 15:42:00,47.6,46.8,30.48,NNW,348,6.0,6.0,97,0.00,,,0.04,Wunderground v.1.15,2013-02-12 23:42:00,
2013-02-12 15:47:00,47.6,46.8,30.48,North,355,6.0,7.0,97,0.00,,,0.04,Wunderground v.1.15,2013-02-12 23:47:00,
2013-02-12 15:53:00,47.7,46.9,30.48,NNW,343,6.0,8.0,97,0.00,,,0.04,Wunderground v.1.15,2013-02-12 23:53:00,
2013-02-12 15:58:00,47.9,46.8,30.48,NNW,342,6.0,8.0,96,0.00,,,0.04,Wunderground v.1.15,2013-02-12 23:58:00,
2013-02-12 16:04:00,47.9,46.8,30.48,NNW,341,6.0,7.0,96,0.00,,,0.04,Wunderground v.1.15,2013-02-13 00:04:00,
2013-02-12 16:09:00,47.9,46.8,30.48,NNW,346,6.0,7.0,96,0.00,,,0.04,Wunderground v.1.15,2013-02-13 00:09:00,
2013-02-12 16:15:00,47.9,46.8,30.47,North,360,7.0,8.0,96,0.00,,,0.04,Wunderground v.1.15,2013-02-13 00:15:00,
2013-02-12 16:20:00,47.8,46.7,30.48,NNW,348,7.0,7.0,96,0.00,,,0.04,Wunderground v.1.15,2013-02-13 00:20:00,
2013-02-12 16:26:00,47.7,46.6,30.47,North,355,7.0,7.0,96,0.00,,,0.04,Wunderground v.1.15,2013-02-13 00:26:00,
2013-02-12 16:32:00,47.7,46.6,30.47,North,349,7.0,7.0,96,0.00,,,0.04,Wunderground v.1.15,2013-02-13 00:32:00,
2013-02-12 16:38:00,47.7,46.6,30.47,NW,326,6.0,7.0,96,0.00,,,0.04,Wunderground v.1.15,2013-02-13 00:38:00,
2013-02-12 16:44:00,47.8,46.4,30.47,NNW,336,5.0,9.0,95,0.00,,,0.04,Wunderground v.1.15,2013-02-13 00:44:00,
2013-02-12 16:50:00,47.7,46.3,30.47,North,355,5.0,7.0,95,0.00,,,0.04,Wunderground v.1.15,2013-02-13 00:50:00,
2013-02-12 16:55:00,47.6,46.2,30.47,North,355,6.0,8.0,95,0.00,,,0.04,Wunderground v.1.15,2013-02-13 00:55:00,
2013-02-12 17:01:00,47.6,46.5,30.46,North,355,7.0,8.0,96,0.00,,,0.04,Wunderground v.1.15,2013-02-13 01:01:00,
2013-02-12 17:06:00,47.4,46.3,30.47,North,360,8.0,9.0,96,0.00,,,0.04,Wunderground v.1.15,2013-02-13 01:06:00,
2013-02-12 17:12:00,47.3,46.2,30.47,North,355,8.0,9.0,96,0.00,,,0.04,Wunderground v.1.15,2013-02-13 01:12:00,
2013-02-12 17:18:00,47.2,46.1,30.47,North,355,8.0,9.0,96,0.00,,,0.04,Wunderground v.1.15,2013-02-13 01:18:00,
2013-02-12 17:23:00,47.1,46.0,30.47,North,355,8.0,9.0,96,0.00,,,0.04,Wunderground v.1.15,2013-02-13 01:23:00,
2013-02-12 17:29:00,47.1,46.0,30.47,North,355,8.0,9.0,96,0.00,,,0.04,Wunderground v.1.15,2013-02-13 01:29:00,
2013-02-12 17:35:00,46.9,45.8,30.47,North,355,8.0,9.0,96,0.00,,,0.04,Wunderground v.1.15,2013-02-13 01:35:00,
2013-02-12 17:41:00,46.8,45.7,30.47,North,5,8.0,8.0,96,0.00,,,0.04,Wunderground v.1.15,2013-02-13 01:41:00,
2013-02-12 17:46:00,46.7,45.6,30.47,North,355,7.0,8.0,96,0.00,,,0.04,Wunderground v.1.15,2013-02-13 01:46:00,
2013-02-12 17:52:00,46.6,45.5,30.48,North,355,7.0,9.0,96,0.00,,,0.04,Wunderground v.1.15,2013-02-13 01:52:00,
2013-02-12 17:58:00,46.6,45.5,30.48,North,349,8.0,11.0,96,0.00,,,0.04,Wunderground v.1.15,2013-02-13 01:58:00,
2013-02-12 18:04:00,46.7,45.6,30.48,NNW,346,8.0,11.0,96,0.00,,,0.04,Wunderground v.1.15,2013-02-13 02:04:00,
2013-02-12 18:09:00,46.6,45.5,30.48,NNW,344,8.0,11.0,96,0.00,,,0.04,Wunderground v.1.15,2013-02-13 02:09:00,
2013-02-12 18:15:00,46.5,45.7,30.48,North,355,8.0,10.0,97,0.00,,,0.04,Wunderground v.1.15,2013-02-13 02:15:00,
2013-02-12 18:21:00,46.4,45.6,30.49,North,9,8.0,8.0,97,0.00,,,0.04,Wunderground v.1.15,2013-02-13 02:21:00,
2013-02-12 18:26:00,46.4,45.6,30.49,North,5,7.0,9.0,97,0.00,,,0.04,Wunderground v.1.15,2013-02-13 02:26:00,
2013-02-12 18:32:00,46.5,45.7,30.49,North,355,7.0,9.0,97,0.00,,,0.04,Wunderground v.1.15,2013-02-13 02:32:00,
2013-02-12 18:38:00,46.5,45.7,30.49,NNE,13,8.0,11.0,97,0.00,,,0.04,Wunderground v.1.15,2013-02-13 02:38:00,
2013-02-12 18:44:00,46.5,45.7,30.49,North,5,8.0,9.0,97,0.00,,,0.04,Wunderground v.1.15,2013-02-13 02:44:00,
2013-02-12 18:49:00,46.4,45.6,30.49,North,351,8.0,9.0,97,0.00,,,0.04,Wunderground v.1.15,2013-02-13 02:49:00,
2013-02-12 18:55:00,46.5,45.7,30.49,North,355,7.0,8.0,97,0.00,,,0.04,Wunderground v.1.15,2013-02-13 02:55:00,
2013-02-12 19:00:00,46.5,45.7,30.49,NNW,344,4.0,6.0,97,0.00,,,0.04,Wunderground v.1.15,2013-02-13 03:00:00,
2013-02-12 19:05:00,46.5,45.7,30.49,North,355,5.0,8.0,97,0.00,,,0.04,Wunderground v.1.15,2013-02-13 03:05:00,
2013-02-12 19:10:00,46.5,45.7,30.49,North,355,7.0,7.0,97,0.00,,,0.04,Wunderground v.1.15,2013-02-13 03:10:00,
2013-02-12 19:15:00,46.5,45.7,30.49,North,355,7.0,9.0,97,0.00,,,0.04,Wunderground v.1.15,2013-02-13 03:15:00,
2013-02-12 19:20:00,46.4,45.6,30.49,North,349,7.0,7.0,97,0.00,,,0.04,Wunderground v.1.15,2013-02-13 03:20:00,
2013-02-12 19:26:00,46.3,45.5,30.49,North,355,7.0,8.0,97,0.00,,,0.04,Wunderground v.1.15,2013-02-13 03:26:00,
2013-02-12 19:32:00,46.3,45.8,30.49,North,350,7.0,8.0,98,0.00,,,0.04,Wunderground v.1.15,2013-02-13 03:32:00,
2013-02-12 19:38:00,46.2,45.4,30.49,North,360,7.0,10.0,97,0.00,,,0.04,Wunderground v.1.15,2013-02-13 03:38:00,
2013-02-12 19:43:00,46.2,45.4,30.49,North,355,8.0,8.0,97,0.00,,,0.04,Wunderground v.1.15,2013-02-13 03:43:00,
2013-02-12 19:48:00,46.2,45.7,30.49,North,355,7.0,8.0,98,0.00,,,0.04,Wunderground v.1.15,2013-02-13 03:48:00,
2013-02-12 19:54:00,46.1,45.6,30.49,North,355,6.0,6.0,98,0.00,,,0.04,Wunderground v.1.15,2013-02-13 03:54:00,
2013-02-12 19:59:00,46.1,45.6,30.49,North,351,4.0,6.0,98,0.00,,,0.04,Wunderground v.1.15,2013-02-13 03:59:00,
2013-02-12 20:05:00,46.1,45.6,30.48,North,360,3.0,6.0,98,0.00,,,0.04,Wunderground v.1.15,2013-02-13 04:05:00,
2013-02-12 20:11:00,46.0,45.5,30.48,North,355,4.0,5.0,98,0.00,,,0.04,Wunderground v.1.15,2013-02-13 04:11:00,
2013-02-12 20:17:00,46.0,45.5,30.48,North,350,4.0,6.0,98,0.00,,,0.04,Wunderground v.1.15,2013-02-13 04:17:00,
2013-02-12 20:22:00,45.9,45.4,30.48,North,351,5.0,6.0,98,0.00,,,0.04,Wunderground v.1.15,2013-02-13 04:22:00,
2013-02-12 20:28:00,45.9,45.4,30.48,North,351,5.0,6.0,98,0.00,,,0.04,Wunderground v.1.15,2013-02-13 04:28:00,
2013-02-12 20:34:00,45.9,45.4,30.48,North,355,5.0,5.0,98,0.00,,,0.04,Wunderground v.1.15,2013-02-13 04:34:00,
2013-02-12 20:40:00,45.8,45.3,30.48,North,355,4.0,6.0,98,0.00,,,0.04,Wunderground v.1.15,2013-02-13 04:40:00,
2013-02-12 20:46:00,45.8,45.3,30.48,NNW,342,5.0,7.0,98,0.00,,,0.04,Wunderground v.1.15,2013-02-13 04:46:00,
2013-02-12 20:51:00,45.8,45.3,30.48,NNW,334,5.0,6.0,98,0.00,,,0.04,Wunderground v.1.15,2013-02-13 04:51:00,
2013-02-12 20:57:00,45.8,45.3,30.48,NNW,345,6.0,10.0,98,0.00,,,0.04,Wunderground v.1.15,2013-02-13 04:57:00,
2013-02-12 21:00:00,45.7,45.2,30.48,North,355,7.0,7.0,98,0.00,,,0.04,Wunderground v.1.15,2013-02-13 05:00:00,
2013-02-12 21:01:00,45.7,45.2,30.48,NNW,344,8.0,8.0,98,0.00,,,0.04,Wunderground v.1.15,2013-02-13 05:01:00,
2013-02-12 21:03:00,45.7,45.2,30.49,North,355,8.0,9.0,98,0.00,,,0.04,Wunderground v.1.15,2013-02-13 05:03:00,
2013-02-12 21:04:00,45.7,45.2,30.49,North,355,8.0,9.0,98,0.00,,,0.04,Wunderground v.1.15,2013-02-13 05:04:00,
2013-02-12 21:10:00,45.7,45.2,30.49,North,350,6.0,7.0,98,0.00,,,0.04,Wunderground v.1.15,2013-02-13 05:10:00,
2013-02-12 21:15:00,45.6,45.1,30.49,North,360,7.0,10.0,98,0.00,,,0.04,Wunderground v.1.15,2013-02-13 05:15:00,
2013-02-12 21:21:00,45.5,45.0,30.49,North,355,8.0,10.0,98,0.00,,,0.04,Wunderground v.1.15,2013-02-13 05:21:00,
2013-02-12 21:26:00,45.4,44.9,30.49,North,349,8.0,10.0,98,0.00,,,0.04,Wunderground v.1.15,2013-02-13 05:26:00,
2013-02-12 21:32:00,45.5,45.0,30.49,North,360,7.0,9.0,98,0.00,,,0.04,Wunderground v.1.15,2013-02-13 05:32:00,
2013-02-12 21:37:00,45.6,45.1,30.49,North,355,8.0,10.0,98,0.00,,,0.04,Wunderground v.1.15,2013-02-13 05:37:00,
2013-02-12 21:42:00,45.6,45.1,30.49,North,360,8.0,9.0,98,0.00,,,0.04,Wunderground v.1.15,2013-02-13 05:42:00,
2013-02-12 21:48:00,45.7,44.9,30.49,North,355,8.0,9.0,97,0.00,,,0.04,Wunderground v.1.15,2013-02-13 05:48:00,
2013-02-12 21:54:00,45.8,45.0,30.49,NNW,340,7.0,9.0,97,0.00,,,0.04,Wunderground v.1.15,2013-02-13 05:54:00,
2013-02-12 21:59:00,45.8,45.0,30.49,NNW,348,7.0,9.0,97,0.00,,,0.04,Wunderground v.1.15,2013-02-13 05:59:00,
2013-02-12 22:05:00,45.9,45.1,30.49,North,350,7.0,8.0,97,0.00,,,0.04,Wunderground v.1.15,2013-02-13 06:05:00,
2013-02-12 22:10:00,45.9,45.1,30.49,North,355,7.0,8.0,97,0.00,,,0.04,Wunderground v.1.15,2013-02-13 06:10:00,
2013-02-12 22:16:00,45.9,45.1,30.50,North,360,7.0,9.0,97,0.00,,,0.04,Wunderground v.1.15,2013-02-13 06:16:00,
2013-02-12 22:22:00,46.0,45.2,30.50,North,350,7.0,8.0,97,0.00,,,0.04,Wunderground v.1.15,2013-02-13 06:22:00,
2013-02-12 22:28:00,45.8,45.0,30.49,North,355,8.0,10.0,97,0.00,,,0.04,Wunderground v.1.15,2013-02-13 06:28:00,
2013-02-12 22:34:00,45.8,45.0,30.49,NNW,346,8.0,10.0,97,0.00,,,0.04,Wunderground v.1.15,2013-02-13 06:34:00,
2013-02-12 22:40:00,45.9,44.8,30.49,North,355,8.0,9.0,96,0.00,,,0.04,Wunderground v.1.15,2013-02-13 06:40:00,
2013-02-12 22:46:00,45.9,44.8,30.50,North,355,8.0,9.0,96,0.00,,,0.04,Wunderground v.1.15,2013-02-13 06:46:00,
2013-02-12 22:52:00,46.0,44.9,30.49,North,350,8.0,8.0,96,0.00,,,0.04,Wunderground v.1.15,2013-02-13 06:52:00,
2013-02-12 22:58:00,46.1,45.0,30.49,North,360,8.0,8.0,96,0.00,,,0.04,Wunderground v.1.15,2013-02-13 06:58:00,
2013-02-12 23:03:00,46.1,44.7,30.49,North,360,8.0,9.0,95,0.00,,,0.04,Wunderground v.1.15,2013-02-13 07:03:00,
2013-02-12 23:08:00,46.1,44.7,30.49,North,360,9.0,11.0,95,0.00,,,0.04,Wunderground v.1.15,2013-02-13 07:08:00,
2013-02-12 23:14:00,46.1,44.7,30.49,North,355,9.0,10.0,95,0.00,,,0.04,Wunderground v.1.15,2013-02-13 07:14:00,
2013-02-12 23:19:00,46.1,44.7,30.50,North,351,9.0,10.0,95,0.00,,,0.04,Wunderground v.1.15,2013-02-13 07:19:00,
2013-02-12 23:24:00,46.0,44.6,30.50,North,360,9.0,11.0,95,0.00,,,0.04,Wunderground v.1.15,2013-02-13 07:24:00,
2013-02-12 23:29:00,46.0,44.6,30.49,North,355,9.0,11.0,95,0.00,,,0.04,Wunderground v.1.15,2013-02-13 07:29:00,
2013-02-12 23:34:00,46.0,44.6,30.50,North,5,8.0,10.0,95,0.00,,,0.04,Wunderground v.1.15,2013-02-13 07:34:00,
2013-02-12 23:40:00,45.9,44.5,30.49,North,5,7.0,7.0,95,0.00,,,0.04,Wunderground v.1.15,2013-02-13 07:40:00,
2013-02-12 23:46:00,46.1,44.7,30.50,North,355,7.0,9.0,95,0.00,,,0.04,Wunderground v.1.15,2013-02-13 07:46:00,
2013-02-12 23:52:00,46.1,44.7,30.50,North,355,7.0,8.0,95,0.00,,,0.04,Wunderground v.1.15,2013-02-13 07:52:00,
2013-02-12 23:58:00,46.1,44.7,30.50,North,351,6.0,8.0,95,0.00,,,0.04,Wunderground v.1.15,2013-02-13 07:58:00,